Tracking 29040 objects as of 17-Jun-2024
HD Live streaming from Space Station
objects crossing your sky now

STARLINK-3994

Track STARLINK-3994 now!
10-day predictions
STARLINK-3994 is classified as:


NORAD ID: 52633
Int'l Code: 2022-052AM
Perigee: 546.2 km
Apogee: 547.6 km
Inclination: 53.2 °
Period: 95.4 minutes
Semi major axis: 6917 km
RCS: Unknown
Launch date: May 14, 2022
Source: United States (US)
Launch site: AIR FORCE EASTERN TEST RANGE (AFETR)
Your satellite tracking list
Your tracking list is empty




NASA's NSSDC Master Catalog

Two Line Element Set (TLE):
1 52633U 22052AM  24168.42932275  .00000656  00000-0  59308-4 0  9991
2 52633  53.2156 222.9596 0001054  92.7187 267.3926 15.08839667115704
Source of the keplerian elements: AFSPC